Torna al catalogo

ATLAS CENTAUR R/B

AttivoGTO
NORAD 8840·ROCKET BODY·🇺🇸 United States

Lanciato May 13, 1976 da Cape Canaveral Space Force Station

Loading…

TLE

In scadenzaSource: Space-Track

Epoca: Sep 14, 2026, 01:59 UTC

1 08840U 76042B   26257.08325611  .00000013  00000-0  31196-3 0  9994
2 08840  20.9520 161.9738 7185773 306.5981 144.0583  2.22576598293358

Traccia ATLAS CENTAUR R/B in tempo reale con AllMySat

Download on the App Store